When you browse on this site, cookies collect data to enhance your experience and personalize the content and advertising you see.
Visit our Privacy Policy to learn more. By continuing to use the site, you agree to this use of cookies and data.
  • In Österreich
  • Länderverzeichnis
  • Für 7 Tage
  • Wassertemperatur
  • Satellitenkarten
  • Wetterkarte
  • News
  • Widgets
  • user-avatar
    Anmelden

    Stündliche Wetter Sapporo

    Heute, 25 April, Donnerstag

    Zeit Temperatur Niederschläge Wind Luftdruck Luftfeuchtigkeit
    00:00 +13°C° 1.5 mm 2 m/S 751 mmHg 92%
    01:00 +12°C° 0.8 mm 2 m/S 750 mmHg 92%
    02:00 +11°C° 0.8 mm 3 m/S 750 mmHg 92%
    03:00 +10°C° 0 mm 3 m/S 750 mmHg 91%
    04:00 +8°C° 0.2 mm 4 m/S 750 mmHg 90%
    05:00 +8°C° 0.2 mm 4 m/S 750 mmHg 90%
    06:00 +7°C° 0.2 mm 4 m/S 750 mmHg 89%
    07:00 +8°C° 0 mm 4 m/S 750 mmHg 83%
    08:00 +10°C° 0 mm 4 m/S 751 mmHg 76%
    09:00 +8°C° 0 mm 6 m/S 751 mmHg 70%
    10:00 +9°C° 0 mm 6 m/S 751 mmHg 63%
    11:00 +9°C° 0 mm 6 m/S 751 mmHg 56%
    12:00 +10°C° 0 mm 6 m/S 752 mmHg 50%
    13:00 +10°C° 0 mm 6 m/S 752 mmHg 48%
    14:00 +10°C° 0 mm 5 m/S 752 mmHg 46%
    15:00 +9°C° 0 mm 5 m/S 752 mmHg 45%
    16:00 +8°C° 0 mm 5 m/S 752 mmHg 52%
    17:00 +7°C° 0 mm 5 m/S 753 mmHg 59%
    18:00 +6°C° 0 mm 5 m/S 753 mmHg 65%
    19:00 +5°C° 0 mm 4 m/S 754 mmHg 69%
    20:00 +5°C° 0 mm 4 m/S 754 mmHg 73%
    21:00 +3°C° 0 mm 5 m/S 755 mmHg 74%
    22:00 +4°C° 0 mm 4 m/S 755 mmHg 74%
    23:00 +3°C° 0 mm 3 m/S 755 mmHg 75%

    Morgen, 26 April, Freitag

    Zeit Temperatur Niederschläge Wind Luftdruck Luftfeuchtigkeit
    00:00 +3°C° 0 mm 3 m/S 756 mmHg 76%
    01:00 +4°C° 0 mm 2 m/S 756 mmHg 76%
    02:00 +4°C° 0 mm 2 m/S 756 mmHg 75%
    03:00 +5°C° 0 mm 1 m/S 756 mmHg 75%
    04:00 +5°C° 0 mm 1 m/S 756 mmHg 74%
    05:00 +5°C° 0 mm 1 m/S 756 mmHg 72%
    06:00 +6°C° 0 mm 1 m/S 756 mmHg 71%
    07:00 +6°C° 0.2 mm 1 m/S 756 mmHg 69%
    08:00 +7°C° 0.2 mm 1 m/S 756 mmHg 68%
    09:00 +8°C° 0.2 mm 1 m/S 756 mmHg 66%
    10:00 +8°C° 0.3 mm 1 m/S 756 mmHg 65%
    11:00 +8°C° 0.3 mm 2 m/S 755 mmHg 64%
    12:00 +9°C° 0.3 mm 2 m/S 755 mmHg 63%
    13:00 +9°C° 0.4 mm 2 m/S 755 mmHg 64%
    14:00 +9°C° 0.4 mm 2 m/S 755 mmHg 65%
    15:00 +10°C° 0.4 mm 1 m/S 755 mmHg 66%
    16:00 +9°C° 0.8 mm 1 m/S 755 mmHg 72%
    17:00 +8°C° 0.8 mm 1 m/S 755 mmHg 78%
    18:00 +8°C° 0.8 mm 1 m/S 755 mmHg 85%
    19:00 +7°C° 0.7 mm 1 m/S 755 mmHg 86%
    20:00 +7°C° 0.7 mm 1 m/S 755 mmHg 86%
    21:00 +5°C° 0.7 mm 2 m/S 755 mmHg 87%
    22:00 +5°C° 0.5 mm 2 m/S 755 mmHg 87%
    23:00 +5°C° 0.5 mm 2 m/S 755 mmHg 88%

    übermorgen, 27 April, Samstag

    Zeit Temperatur Niederschläge Wind Luftdruck Luftfeuchtigkeit
    00:00 +4°C° 0.5 mm 2 m/S 755 mmHg 88%
    01:00 +4°C° 0.4 mm 2 m/S 755 mmHg 88%
    02:00 +4°C° 0.4 mm 2 m/S 755 mmHg 88%
    03:00 +3°C° 0.4 mm 2 m/S 755 mmHg 88%
    04:00 +3°C° 0.2 mm 2 m/S 755 mmHg 88%
    05:00 +3°C° 0.2 mm 2 m/S 755 mmHg 87%
    06:00 +3°C° 0.2 mm 2 m/S 755 mmHg 87%
    07:00 +5°C° 0.2 mm 1 m/S 755 mmHg 84%
    08:00 +6°C° 0.2 mm 1 m/S 755 mmHg 81%
    09:00 +7°C° 0.2 mm 1 m/S 756 mmHg 77%
    10:00 +7°C° 0.4 mm 1 m/S 756 mmHg 77%
    11:00 +6°C° 0.4 mm 2 m/S 756 mmHg 77%
    12:00 +7°C° 0.4 mm 2 m/S 756 mmHg 76%
    13:00 +7°C° 0.4 mm 2 m/S 756 mmHg 77%
    14:00 +7°C° 0.4 mm 2 m/S 756 mmHg 77%
    15:00 +7°C° 0.4 mm 2 m/S 755 mmHg 78%
    16:00 +6°C° 0.1 mm 2 m/S 756 mmHg 78%
    17:00 +6°C° 0.1 mm 2 m/S 756 mmHg 79%
    18:00 +6°C° 0.1 mm 2 m/S 756 mmHg 80%
    19:00 +5°C° 0 mm 2 m/S 757 mmHg 80%
    20:00 +4°C° 0 mm 2 m/S 757 mmHg 81%
    21:00 +4°C° 0 mm 2 m/S 758 mmHg 81%
    22:00 +3°C° 0 mm 2 m/S 758 mmHg 81%
    23:00 +3°C° 0 mm 2 m/S 758 mmHg 82%

    28 April, Sonntag

    Zeit Temperatur Niederschläge Wind Luftdruck Luftfeuchtigkeit
    00:00 +3°C° 0 mm 1 m/S 758 mmHg 82%
    01:00 +2°C° 0 mm 2 m/S 758 mmHg 82%
    02:00 +2°C° 0 mm 2 m/S 759 mmHg 82%
    03:00 +2°C° 0 mm 2 m/S 759 mmHg 82%
    04:00 +2°C° 0 mm 2 m/S 759 mmHg 81%
    05:00 +4°C° 0 mm 1 m/S 759 mmHg 80%
    06:00 +5°C° 0 mm 1 m/S 759 mmHg 79%
    07:00 +7°C° 0 mm 1 m/S 760 mmHg 71%
    08:00 +8°C° 0 mm 1 m/S 760 mmHg 64%
    09:00 +9°C° 0 mm 2 m/S 760 mmHg 56%
    10:00 +10°C° 0 mm 2 m/S 760 mmHg 53%
    11:00 +13°C° 0 mm 2 m/S 760 mmHg 49%
    12:00 +14°C° 0 mm 2 m/S 760 mmHg 45%
    13:00 +14°C° 0 mm 2 m/S 759 mmHg 46%
    14:00 +14°C° 0 mm 2 m/S 759 mmHg 47%
    15:00 +15°C° 0 mm 1 m/S 759 mmHg 48%
    16:00 +14°C° 0 mm 1 m/S 759 mmHg 54%
    17:00 +12°C° 0 mm 1 m/S 759 mmHg 60%
    18:00 +11°C° 0 mm 1 m/S 759 mmHg 66%
    19:00 +10°C° 0 mm 1 m/S 760 mmHg 70%
    20:00 +9°C° 0 mm 1 m/S 760 mmHg 74%
    21:00 +7°C° 0 mm 2 m/S 760 mmHg 77%
    22:00 +6°C° 0 mm 2 m/S 760 mmHg 79%
    23:00 +6°C° 0 mm 2 m/S 760 mmHg 80%

    29 April, Montag

    Zeit Temperatur Niederschläge Wind Luftdruck Luftfeuchtigkeit
    00:00 +5°C° 0 mm 2 m/S 761 mmHg 81%
    01:00 +5°C° 0 mm 2 m/S 760 mmHg 82%
    02:00 +5°C° 0 mm 2 m/S 760 mmHg 83%
    03:00 +5°C° 0 mm 2 m/S 760 mmHg 84%
    04:00 +5°C° 0 mm 2 m/S 760 mmHg 82%
    05:00 +6°C° 0 mm 2 m/S 760 mmHg 80%
    06:00 +7°C° 0 mm 2 m/S 761 mmHg 78%
    07:00 +9°C° 0 mm 2 m/S 761 mmHg 71%
    08:00 +12°C° 0 mm 2 m/S 761 mmHg 65%
    09:00 +14°C° 0 mm 2 m/S 760 mmHg 59%
    10:00 +15°C° 0 mm 2 m/S 760 mmHg 54%
    11:00 +16°C° 0 mm 2 m/S 760 mmHg 50%
    12:00 +17°C° 0 mm 2 m/S 760 mmHg 46%
    13:00 +17°C° 0 mm 3 m/S 760 mmHg 45%
    14:00 +17°C° 0 mm 3 m/S 759 mmHg 44%
    15:00 +17°C° 0 mm 3 m/S 759 mmHg 43%
    16:00 +14°C° 0 mm 3 m/S 759 mmHg 49%
    17:00 +14°C° 0 mm 2 m/S 759 mmHg 54%
    18:00 +12°C° 0 mm 1 m/S 759 mmHg 60%
    19:00 +12°C° 0 mm 1 m/S 759 mmHg 63%
    20:00 +10°C° 0 mm 2 m/S 759 mmHg 66%
    21:00 +9°C° 0 mm 2 m/S 759 mmHg 70%
    22:00 +8°C° 0 mm 2 m/S 758 mmHg 71%
    23:00 +8°C° 0 mm 2 m/S 758 mmHg 73%

    30 April, Dienstag

    Zeit Temperatur Niederschläge Wind Luftdruck Luftfeuchtigkeit
    00:00 +8°C° 0 mm 2 m/S 758 mmHg 74%
    01:00 +8°C° 0 mm 2 m/S 757 mmHg 73%
    02:00 +8°C° 0 mm 2 m/S 757 mmHg 71%
    03:00 +8°C° 0 mm 2 m/S 756 mmHg 70%
    04:00 +8°C° 0 mm 2 m/S 756 mmHg 70%
    05:00 +9°C° 0 mm 2 m/S 755 mmHg 69%
    06:00 +9°C° 0 mm 2 m/S 755 mmHg 69%
    07:00 +10°C° 0.1 mm 2 m/S 754 mmHg 69%
    08:00 +12°C° 0.1 mm 3 m/S 754 mmHg 70%
    09:00 +13°C° 0.1 mm 3 m/S 754 mmHg 70%
    10:00 +13°C° 0.6 mm 3 m/S 753 mmHg 74%
    11:00 +13°C° 0.6 mm 3 m/S 752 mmHg 77%
    12:00 +13°C° 0.6 mm 3 m/S 751 mmHg 80%
    13:00 +13°C° 1.2 mm 3 m/S 750 mmHg 83%
    14:00 +13°C° 1.2 mm 2 m/S 749 mmHg 86%
    15:00 +13°C° 1.2 mm 2 m/S 748 mmHg 89%
    16:00 +13°C° 0.3 mm 2 m/S 748 mmHg 90%
    17:00 +12°C° 0.3 mm 3 m/S 747 mmHg 91%
    18:00 +12°C° 0.3 mm 3 m/S 747 mmHg 92%
    19:00 +11°C° 0.3 mm 3 m/S 747 mmHg 93%
    20:00 +11°C° 0.3 mm 3 m/S 746 mmHg 94%
    21:00 +10°C° 0.3 mm 3 m/S 746 mmHg 94%
    22:00 +11°C° 0.6 mm 3 m/S 746 mmHg 94%
    23:00 +11°C° 0.6 mm 4 m/S 745 mmHg 94%
    Mehr zeigen